Watertown, NY

4:40 AM EST on November 20, 2019 (GMT -0500)
Watertown International

Weather History for KART - September, 2019

Change the Weather History Date:

Sunday, September 29, 2019

  Actual Average Record
Temperature  
Mean Temperature 53 °F 54 °F  
Max Temperature 60 °F 65 °F 88 °F (1959)
Min Temperature 45 °F 44 °F 23 °F (2000)
Degree Days  
Heating Degree Days 12 11  
Month to date heating degree days 164 190  
Since 1 July heating degree days 193 262  
Cooling Degree Days 0 0  
Month to date cooling degree days 20 36  
Year to date cooling degree days 341 360  
Growing Degree Days 2 (Base 50)    
Moisture  
Dew Point 44 °F    
Average Humidity 68    
Maximum Humidity 86    
Minimum Humidity 49    
Precipitation  
Precipitation 0.00 in 0.13 in 1.81 in (1997)
Month to date precipitation 3.32 3.58  
Year to date precipitation 31.41 25.38  
Sea Level Pressure  
Sea Level Pressure 30.34 in    
Wind  
Wind Speed 10 mph (NE)    
Max Wind Speed 20 mph    
Max Gust Speed 24 mph    
Visibility 10 miles    
Events      
T = Trace of Precipitation, MM = Missing Value Source: NWS Daily Summary

Daily Weather History Graph

Daily Weather History Graph

Search for Another Location

Airport or City:

Astronomy

Sep. 29, 2019 Rise Set
Actual Time 6:59 AM EDT 6:49 PM EDT
Civil Twilight 6:30 AM EDT 7:17 PM EDT
Nautical Twilight 5:56 AM EDT 7:51 PM EDT
Astronomical Twilight 5:22 AM EDT 8:25 PM EDT
Moon 7:47 AM EDT (9/29) 7:46 PM EDT (9/29)
Length of Visible Light 12h 47m
Length of Day
11h 49m
New Moon, 1% of the Moon is Illuminated
Sep 29
New Moon
Oct 5
First Quarter
Oct 13
Full
Oct 21
Last Quarter
Oct 27
New

Hourly Weather History & Observations

Time (EDT) Temp. Windchill Dew Point Humidity Pressure Visibility Wind Dir Wind Speed Gust Speed Precip Events Conditions
12:14 AM 59.0 °F - 55.0 °F 87% 30.21 in 10.0 mi North 9.2 mph - N/A   Mostly Cloudy
12:29 AM 57.9 °F - 54.0 °F 87% 30.22 in 10.0 mi North 10.4 mph - N/A   Scattered Clouds
12:56 AM 57.0 °F - 53.1 °F 87% 30.22 in 10.0 mi North 10.4 mph - N/A   Mostly Cloudy
1:09 AM 57.0 °F - 52.0 °F 83% 30.24 in 10.0 mi North 9.2 mph - N/A   Mostly Cloudy
1:56 AM 55.9 °F - 52.0 °F 87% 30.25 in 10.0 mi NNE 10.4 mph - N/A   Overcast
2:46 AM 54.0 °F - 48.0 °F 80% 30.27 in 10.0 mi NNE 9.2 mph - N/A   Overcast
2:56 AM 54.0 °F - 48.0 °F 80% 30.27 in 10.0 mi NNE 8.1 mph - N/A   Overcast
3:10 AM 53.1 °F - 48.0 °F 83% 30.28 in 10.0 mi North 6.9 mph - N/A   Overcast
3:44 AM 53.1 °F - 46.9 °F 80% 30.30 in 10.0 mi North 12.7 mph - N/A   Mostly Cloudy
3:56 AM 52.0 °F - 46.9 °F 83% 30.30 in 10.0 mi NNE 10.4 mph - N/A   Scattered Clouds
4:56 AM 48.0 °F - 45.0 °F 89% 30.32 in 10.0 mi NE 5.8 mph - N/A   Clear
5:56 AM 48.0 °F - 44.1 °F 86% 30.34 in 10.0 mi NNE 9.2 mph - N/A   Mostly Cloudy
6:41 AM 46.0 °F 41.4 °F 41.0 °F 83% 30.36 in 10.0 mi NE 9.2 mph - N/A   Scattered Clouds
6:56 AM 45.0 °F 40.1 °F 39.9 °F 82% 30.37 in 10.0 mi NE 9.2 mph - N/A   Clear
7:56 AM 46.0 °F 41.9 °F 39.9 °F 79% 30.39 in 10.0 mi NE 8.1 mph - N/A   Clear
8:56 AM 48.0 °F - 39.9 °F 74% 30.41 in 10.0 mi NE 16.1 mph - N/A   Clear
9:56 AM 50.0 °F - 41.0 °F 71% 30.43 in 10.0 mi NE 15.0 mph - N/A   Clear
10:56 AM 53.1 °F - 42.1 °F 66% 30.43 in 10.0 mi NE 15.0 mph - N/A   Clear
11:56 AM 55.9 °F - 42.1 °F 60% 30.42 in 10.0 mi ENE 12.7 mph - N/A   Clear
12:56 PM 57.0 °F - 43.0 °F 59% 30.42 in 10.0 mi NE 11.5 mph - N/A   Clear
1:56 PM 59.0 °F - 42.1 °F 53% 30.40 in 10.0 mi NE 15.0 mph 21.9 mph N/A   Clear
2:56 PM 57.9 °F - 39.9 °F 51% 30.39 in 10.0 mi NE 16.1 mph - N/A   Clear
3:56 PM 60.1 °F - 41.0 °F 49% 30.37 in 10.0 mi NE 15.0 mph - N/A   Clear
4:56 PM 57.9 °F - 41.0 °F 53% 30.37 in 10.0 mi NNE 6.9 mph - N/A   Clear
5:56 PM 55.9 °F - 42.1 °F 60% 30.38 in 10.0 mi North 6.9 mph - N/A   Clear
6:56 PM 54.0 °F - 42.1 °F 64% 30.38 in 10.0 mi North 6.9 mph - N/A   Clear
7:56 PM 50.0 °F - 41.0 °F 71% 30.39 in 10.0 mi NNE 8.1 mph - N/A   Clear
8:56 PM 46.9 °F - 41.0 °F 80% 30.39 in 10.0 mi ENE 5.8 mph - N/A   Clear
9:56 PM 46.9 °F - 41.0 °F 80% 30.38 in 10.0 mi East 4.6 mph - N/A   Clear
10:56 PM 46.9 °F - 41.0 °F 80% 30.38 in 10.0 mi ENE 4.6 mph - N/A   Clear
11:56 PM 48.0 °F - 41.0 °F 77% 30.38 in 10.0 mi NE 8.1 mph - N/A   Clear